FLOCK 4S-9 (47478 NORAD) Tracking and Keplerian Element Data

This shows tracking and keplerian element data for the satellite.

Feedback or suggestion? Click here.




ElementValue
Catalog47478
NameFLOCK 4S-9
Epoch Orbit1258
Epoch Day105.88513502
Epoch Year2021
RAAN168.0754
Inclination97.4935
Eccentricity0.0007813
Argument of Perigee343.5987
Mean Anonmoly16.499
Mean Motion15.11861352
Decay Rate1.593E-05
L11 47478U 21006BT 21105.88513502 .00001593 00000-0 96880-4 0 9993
L22 47478 97.4935 168.0754 0007813 343.5987 16.4990 15.11861352 12586

Live tracking and technical data element details for FLOCK 4S-9 (NORAD 47478). FLOCK 4S-9 can be tracked NOW for your location showing map with azimuth and elevation plus other details from your city location.

Track the satellite on the map from your city or location and see movement details for azimuth, elevation, latitude, longitude, range, height, and movement on the map or in text.







IsCatalogInMostPopularTable: catalog: 47478, numindb: 18
Update: records affected: 1



GetName: 47478 FLOCK 4S-9

Hit Count: updated at: Fri, 16 Apr 2021 10:47:39 GMT